Temperature
17 17 17 16 16 16 16 16 16 16 16 17 17 17 17 17 17 16 16 16 16 17 17 17 17 17 17 16 16 16 16 16 16 16 15 15 15 15
16 16 16 16 16 16 16 16 16 16 15 16 16 16 16 16 16 16 16 16 16 16 16 16 16 16 16 16 16 16 16 16 15 15 15 15 15 15
16 16 16 16 16 16 16 16 16 16 16 16 16 16 16 16 16 16 16 16 16 16 16 16 16 16 16 16 16 16 15 15 15 15 15 15 15 15
16 16 16 16 16 16 16 16 16 15 15 15 15 16 16 16 15 15 15 15 16 16 16 16 15 15 15 15 15 15 15 15 15 15 15 15 15 15
16 16 16 16 16 16 16 15 15 15 15 15 15 15 15 15 15 15 15 15 15 15 15 15 15 15 15 15 15 15 15 15 15 14 14 14 14 14
15 15 15 15 15 15 15 15 15 15 15 15 15 15 15 15 15 15 15 15 15 15 15 15 15 15 15 15 15 14 14 14 14 14 14 14 14 14
15 15 15 15 15 15 15 15 15 14 14 14 14 14 14 14 14 14 14 14 14 14 14 14 14 14 14 14 14 14 14 14 14 14 14 14 14 14
15 15 15 15 14 14 14 14 14 14 14 14 14 14 14 14 14 13 14 14 13 14 14 14 14 14 14 14 14 14 14 14 14 14 14 14 14 13
15 15 14 14 14 14 14 14 14 14 14 13 13 14 14 13 13 13 13 13 13 13 13 13 13 13 14 14 13 13 13 13 13 13 13 13 13 13
14 14 14 14 14 14 14 14 14 14 13 13 13 13 13 13 13 13 13 13 13 13 13 12 13 13 13 13 13 13 13 13 13 13 13 13 13 13
14 14 14 14 14 13 13 13 13 13 13 13 13 13 13 13 13 13 12 12 12 12 12 12 12 13 13 13 13 13 13 13 13 13 13 13 12 12
14 14 14 13 13 13 13 13 13 13 13 13 13 13 13 13 12 12 12 12 12 12 12 12 12 12 12 12 13 13 13 12 12 12 12 12 12 12
14 14 13 13 13 13 13 13 13 13 12 12 12 12 12 12 12 12 12 12 12 11 11 11 11 11 11 12 12 12 12 12 12 12 12 12 12 12
13 13 13 13 13 13 13 13 12 12 12 12 12 12 12 12 12 12 11 11 11 11 11 11 11 11 11 11 11 12 12 12 12 12 11 12 12 11
13 13 13 13 12 12 12 12 12 12 12 11 11 11 11 11 11 11 11 11 11 11 11 11 11 11 11 11 11 11 11 11 11 11 11 11 11 11
12 12 12 12 12 12 12 12 11 11 11 11 11 11 11 11 11 11 11 11 11 11 11 11 11 11 11 11 11 11 11 10 10 10 10 11 10 10
12 12 12 11 11 11 11 11 11 11 11 10 10 10 10 10 10 10 10 10 10 10 10 10 10 10 10 10 10 10 10 10 10 10 10 10 10 10
11 11 11 11 11 11 11 11 11 10 10 10 10 10 10 10 10 10 10 10 10 10 10 10 10 10 10 10 10 10 10 10 10 10 10 10 10 9
11 11 11 11 10 10 10 10 10 10 10 10 10 10 10 10 9 9 9 10 9 9 9 10 10 10 9 9 9 9 9 9 9 9 9 9 9 9
11 10 10 10 10 10 10 10 10 10 10 9 9 9 9 9 9 9 9 9 9 9 9 9 9 9 9 9 9 9 9 9 9 9 9 9 9 9
10 10 10 10 10 9 9 9 9 9 9 9 9 9 9 9 9 9 9 9 9 9 9 9 9 9 9 9 8 8 8 8 8 8 8 8 8 8
10 10 10 9 9 9 9 9 9 9 9 9 9 9 9 9 9 9 8 8 8 8 8 8 8 8 8 8 8 8 8 8 8 8 8 8 7 7
10 9 9 9 9 9 9 9 9 9 8 8 8 8 8 8 8 8 8 8 7 7 7 8 8 8 8 8 7 7 7 7 7 7 7 7 7 7
Wind_Speed
3 4 3 3 4 4 4 3 3 3 4 3 2 2 3 4 6 5 6 7 7 8 8 8 8 9 9 9 8 8 8 9 9 9 9 9 9 9
3 3 3 3 3 3 4 4 4 4 4 3 3 3 3 3 5 6 6 7 7 7 8 8 8 8 8 8 8 7 7 7 8 8 8 8 8 9
3 3 4 3 2 3 3 3 3 3 5 4 3 3 3 3 3 4 4 4 5 6 7 7 7 7 7 7 7 7 7 7 7 7 7 7 8 8
4 4 4 3 3 3 3 3 4 4 4 6 4 3 3 3 3 3 3 4 4 5 7 7 7 7 7 7 6 6 6 6 7 7 6 7 7 7
5 5 5 4 4 4 4 4 4 4 4 4 4 3 3 2 2 3 3 3 4 4 5 6 6 7 7 7 7 6 6 6 6 6 6 6 6 7
5 5 5 5 5 5 4 5 4 3 3 3 4 3 3 2 2 3 3 3 3 3 3 3 4 6 6 7 7 7 7 7 7 6 6 6 6 7
5 5 5 6 6 5 4 4 4 3 3 3 4 3 3 2 3 3 3 3 3 3 3 3 3 3 4 6 7 8 8 8 8 7 7 7 7 7
5 5 5 6 6 6 6 5 5 5 4 4 4 5 5 4 3 3 3 3 3 2 2 3 3 4 4 4 6 8 8 8 9 8 8 8 7 8
4 4 4 4 4 4 5 6 6 7 7 5 6 6 6 5 4 4 4 4 4 3 2 4 3 4 4 5 7 8 9 9 8 8 8 8 8 7
4 4 4 5 4 4 4 4 5 5 6 6 6 7 6 5 5 5 4 4 3 3 2 3 4 4 4 5 6 8 8 8 8 8 7 7 7 7
4 3 3 4 5 4 4 5 5 5 5 5 6 6 6 5 4 3 3 2 3 3 2 3 3 3 4 4 5 6 7 7 7 7 7 7 7 6
3 3 4 4 5 3 3 4 5 5 4 3 3 4 3 3 4 5 5 4 3 3 3 3 2 2 2 2 3 3 3 4 5 6 6 6 5 4
3 3 3 5 5 4 3 4 5 4 3 3 3 2 2 2 3 3 4 4 4 4 3 3 2 2 2 2 2 2 1 1 1 2 4 5 5 5
3 3 3 4 4 4 3 3 3 2 1 1 2 2 2 3 3 3 3 4 4 5 5 4 3 3 3 3 3 2 1 1 1 1 1 2 4 5
2 3 3 3 3 2 2 2 1 1 1 1 2 3 3 3 2 2 2 3 4 5 5 6 5 4 4 4 3 2 2 2 1 1 1 1 1 1
2 2 2 2 2 2 2 2 1 1 1 2 3 3 2 2 2 2 2 2 3 4 4 5 6 6 4 4 4 3 2 2 1 1 1 1 1 1
1 1 2 2 2 3 2 2 2 1 2 2 2 2 2 2 2 2 2 2 2 3 3 2 2 3 4 3 3 3 3 2 2 1 1 1 2 2
1 0 1 1 2 2 2 3 2 2 2 2 2 2 2 3 3 2 2 2 3 3 3 2 0 0 0 1 2 3 2 2 2 2 2 2 3 2
1 1 1 2 2 2 2 2 3 3 2 2 2 2 2 2 2 2 2 2 3 3 2 1 1 1 2 3 2 2 2 2 2 2 2 3 3 3
1 2 2 3 3 3 2 2 2 2 2 2 2 2 2 2 2 2 2 2 3 2 2 1 1 2 3 3 2 2 2 2 2 2 2 2 2 3
2 3 3 3 3 3 2 2 2 2 2 2 2 2 2 2 2 2 2 2 2 1 2 2 2 1 1 1 1 2 2 1 2 1 1 1 2 2
3 3 3 3 3 3 2 2 2 2 2 2 2 2 2 2 2 2 1 1 1 1 2 2 2 1 1 1 1 2 2 2 2 2 2 2 2 2
4 3 2 2 2 2 2 3 3 2 2 2 2 2 2 1 1 1 1 1 1 1 1 1 1 1 1 0 1 1 2 3 2 2 3 4 2 2
Wind_Direction
238 236 240 245 234 232 221 214 227 269 286 271 265 258 239 237 242 244 247 249 250 249 244 245 246 245 240 241 241 240 239 237 238 239 241 245 245 246
236 236 246 254 248 243 233 227 222 231 260 274 265 275 260 253 251 246 249 252 248 245 245 245 247 247 239 234 234 237 238 237 234 231 235 243 245 245
256 246 251 251 253 254 244 237 237 227 251 273 273 280 259 261 273 262 262 256 255 246 244 242 243 243 236 233 230 229 232 236 238 235 238 244 247 248
253 249 257 256 256 259 253 253 246 234 239 265 277 278 269 267 270 270 275 273 267 258 246 245 241 233 227 226 224 224 227 233 238 239 241 246 249 251
253 252 257 255 259 263 259 255 250 247 236 251 267 266 272 273 282 280 278 280 278 270 256 245 238 233 231 228 227 224 225 231 237 241 242 246 250 254
257 254 256 252 252 257 259 255 252 251 250 252 263 266 267 270 257 268 284 282 281 282 270 259 251 245 240 236 233 229 229 232 236 239 243 246 249 253
261 260 257 256 257 256 261 254 241 245 253 256 262 266 263 261 261 260 270 286 287 270 278 279 269 260 255 247 236 233 235 238 239 240 244 246 246 247
262 264 263 259 263 268 267 256 238 238 243 248 257 257 261 255 258 253 262 279 284 278 271 284 269 264 260 253 242 236 239 241 242 243 244 246 244 244
262 265 277 279 269 268 275 271 259 253 240 238 248 253 253 243 238 247 247 250 258 271 271 275 278 275 271 261 247 242 242 243 243 243 243 243 243 242
269 264 264 272 269 267 274 275 270 264 253 246 243 252 254 242 228 233 240 249 271 270 242 261 277 277 283 271 262 250 247 245 243 241 240 242 244 242
281 278 274 275 285 285 272 272 280 285 284 267 257 256 258 248 220 210 219 232 269 269 233 242 265 279 277 274 269 258 251 245 241 239 235 236 238 238
291 291 295 291 290 288 267 261 269 282 295 300 292 288 273 246 212 213 215 223 251 261 236 225 249 263 273 272 286 283 264 255 245 238 236 234 231 231
291 299 297 301 300 291 270 259 256 264 271 268 278 287 292 281 256 233 224 221 231 246 234 217 246 248 255 282 293 291 269 273 264 256 243 236 228 219
284 291 297 309 313 304 287 278 272 268 246 255 266 275 280 279 274 262 252 245 244 248 238 222 236 236 245 262 275 298 305 291 256 261 271 264 245 235
283 291 304 317 326 327 316 314 308 281 249 262 268 274 277 278 281 278 276 264 263 257 243 237 236 234 235 241 252 266 287 299 273 270 296 290 258 244
306 320 324 330 343 334 337 330 314 280 253 259 269 280 288 288 281 275 275 282 286 285 268 244 234 228 233 237 237 251 253 252 271 277 292 309 296 273
303 360 15 10 4 357 352 342 328 320 296 286 281 291 294 290 291 289 276 275 270 278 285 288 248 231 235 233 236 245 253 264 267 258 230 281 291 283
156 315 323 326 325 320 320 319 310 305 303 302 295 286 281 275 280 289 269 264 274 278 276 284 275 332 317 293 231 238 255 263 269 261 227 236 277 293
170 253 277 289 295 295 295 293 296 299 300 296 288 286 285 281 278 284 285 275 273 277 272 253 216 204 248 287 297 220 241 266 278 283 268 254 263 281
230 255 269 277 280 282 286 288 296 308 310 298 289 288 284 278 274 277 280 281 280 286 291 289 231 223 231 252 275 296 243 233 256 277 288 279 273 280
242 251 258 261 264 265 271 275 280 286 296 289 284 284 282 273 273 274 281 292 293 289 283 291 295 273 232 193 285 314 333 309 235 251 277 276 288 290
242 246 253 256 256 255 260 267 272 278 285 281 281 282 278 268 262 263 268 272 281 284 295 315 354 41 98 165 270 303 319 342 353 348 331 262 266 270
245 245 249 258 260 263 265 263 261 268 270 269 269 268 262 258 254 245 253 250 257 274 300 349 15 29 32 30 302 307 319 325 336 359 358 352 314 275
Height
1527 1528 1528 1528 1528 1528 1527 1526 1526 1524 1522 1522 1522 1522 1522 1522 1522 1522 1522 1522 1522 1522 1522 1522 1522 1522 1522 1522 1522 1522 1522 1522 1522 1522 1522 1522 1522 1523
1524 1524 1524 1524 1524 1524 1524 1523 1523 1522 1519 1518 1519 1519 1519 1519 1518 1518 1518 1518 1518 1517 1517 1517 1517 1517 1517 1516 1517 1517 1517 1517 1517 1517 1517 1517 1518 1518
1520 1520 1520 1520 1520 1520 1520 1520 1519 1518 1516 1515 1515 1515 1515 1515 1514 1514 1514 1513 1513 1513 1512 1512 1512 1512 1512 1512 1512 1512 1511 1512 1512 1512 1512 1512 1513 1513
1516 1516 1516 1516 1516 1516 1516 1515 1514 1514 1513 1511 1511 1511 1511 1511 1510 1510 1510 1509 1509 1508 1508 1507 1507 1507 1507 1507 1507 1507 1507 1507 1507 1507 1507 1508 1508 1508
1512 1512 1512 1512 1512 1512 1511 1510 1510 1509 1509 1508 1507 1507 1507 1506 1506 1506 1505 1505 1504 1504 1503 1502 1502 1502 1502 1502 1502 1502 1502 1502 1502 1502 1502 1502 1502 1503
1509 1508 1508 1508 1507 1507 1507 1506 1506 1505 1504 1504 1503 1502 1502 1502 1501 1501 1500 1500 1499 1499 1498 1498 1498 1498 1497 1497 1497 1497 1497 1497 1497 1497 1497 1497 1497 1497
1504 1504 1504 1504 1504 1503 1503 1502 1502 1501 1500 1499 1499 1498 1498 1497 1497 1496 1496 1495 1495 1495 1494 1494 1494 1493 1493 1492 1492 1492 1492 1492 1492 1492 1493 1492 1492 1492
1499 1499 1499 1499 1499 1499 1498 1498 1497 1497 1496 1495 1494 1494 1493 1493 1493 1492 1492 1491 1490 1491 1490 1489 1489 1489 1488 1488 1488 1488 1487 1487 1487 1488 1488 1488 1487 1487
1495 1495 1495 1495 1495 1494 1494 1493 1492 1492 1492 1491 1490 1489 1489 1489 1489 1488 1488 1487 1486 1486 1486 1485 1485 1484 1484 1483 1483 1483 1483 1483 1483 1483 1483 1483 1483 1483
1492 1491 1490 1490 1490 1489 1489 1488 1487 1487 1487 1486 1485 1485 1485 1485 1485 1485 1484 1483 1482 1482 1482 1481 1480 1480 1480 1479 1479 1479 1478 1478 1478 1478 1478 1478 1478 1478
1488 1488 1487 1486 1486 1485 1484 1483 1482 1482 1482 1481 1481 1481 1480 1481 1481 1480 1480 1479 1478 1478 1478 1477 1476 1476 1476 1475 1475 1474 1474 1474 1474 1474 1474 1474 1474 1474
1484 1483 1483 1482 1482 1481 1480 1479 1478 1477 1477 1477 1476 1476 1476 1475 1476 1476 1476 1475 1474 1473 1473 1474 1473 1473 1472 1471 1471 1470 1470 1470 1470 1470 1471 1471 1471 1470
1480 1479 1479 1479 1478 1477 1477 1476 1474 1473 1473 1473 1472 1472 1471 1471 1471 1471 1471 1471 1470 1469 1470 1470 1469 1469 1469 1468 1467 1467 1467 1467 1467 1467 1467 1467 1467 1467
1477 1476 1476 1476 1475 1474 1473 1472 1471 1470 1469 1469 1468 1467 1467 1467 1467 1467 1466 1466 1466 1466 1465 1466 1465 1465 1465 1464 1464 1464 1464 1463 1463 1464 1464 1464 1463 1463
1474 1474 1473 1473 1472 1471 1470 1469 1468 1467 1466 1465 1464 1464 1464 1463 1463 1462 1462 1462 1461 1461 1461 1461 1461 1461 1461 1461 1460 1460 1460 1460 1460 1460 1460 1460 1459 1459
1472 1471 1470 1470 1469 1468 1467 1466 1465 1464 1463 1462 1461 1460 1460 1460 1459 1459 1458 1457 1456 1456 1456 1456 1456 1457 1457 1457 1457 1456 1457 1457 1457 1457 1457 1456 1456 1456
1469 1468 1467 1466 1465 1464 1463 1462 1462 1461 1460 1459 1458 1457 1456 1456 1455 1455 1454 1453 1452 1452 1452 1452 1452 1452 1453 1453 1453 1453 1453 1453 1453 1453 1453 1452 1453 1452
1466 1464 1464 1463 1462 1461 1460 1459 1458 1457 1456 1456 1455 1454 1453 1452 1451 1451 1450 1450 1449 1448 1448 1448 1448 1449 1449 1449 1450 1450 1450 1450 1450 1450 1449 1449 1448 1449
1463 1462 1461 1461 1460 1459 1458 1456 1455 1454 1453 1453 1452 1451 1450 1449 1448 1448 1447 1446 1445 1445 1445 1445 1445 1445 1445 1445 1446 1447 1447 1446 1447 1446 1446 1446 1445 1445
1460 1460 1459 1458 1457 1456 1455 1454 1453 1452 1451 1450 1449 1448 1447 1446 1445 1444 1444 1443 1442 1442 1442 1442 1442 1442 1443 1443 1443 1443 1444 1443 1443 1442 1442 1442 1442 1441
1457 1457 1456 1455 1454 1453 1452 1451 1450 1449 1448 1447 1446 1445 1445 1444 1442 1442 1441 1440 1439 1439 1439 1439 1439 1440 1440 1441 1440 1440 1441 1441 1440 1440 1439 1439 1438 1437
1454 1453 1453 1452 1451 1450 1449 1448 1447 1446 1445 1444 1443 1443 1442 1441 1440 1439 1439 1438 1437 1437 1437 1437 1437 1437 1437 1437 1437 1437 1438 1438 1438 1438 1437 1436 1435 1434
1451 1450 1450 1449 1448 1447 1446 1445 1444 1443 1442 1441 1440 1440 1439 1438 1438 1437 1437 1436 1436 1436 1435 1435 1435 1435 1435 1435 1435 1435 1435 1435 1435 1434 1434 1434 1434 1433